Location: ?????????
(38.5999°N, 22.7695°E)
Time: 17:41:16
(UTC+00:00)

Cosmos 2360 Rocket - Pass Details

Date: 23 May 2024
Orbit: 832 x 846 km, 71.0° (Epoch: 24 June)

Event Time Altitude Azimuth Distance (km) Brightness Sun altitude
Rises 02:01:22 0° 328° (NNW) 3,411 5.5 -12.2°
Reaches altitude 10° 02:04:00 10° 319° (NW) 2,472 4.6 -11.8°
Maximum altitude 02:09:04 35° 256° (WSW) 1,343 2.8 -11.0°
Drops below altitude 10° 02:14:08 10° 192° (SSW) 2,456 4.2 -10.2°
Sets 02:16:45 0° 184° (S) 3,385 5.0 -9.8°
